Tri-Cities, TN

2:25 PM EDT on July 22, 2017 (GMT -0400)
Tri-Cities Regional Tennessee / Virginia

Weather History for KTRI - September, 2014

Change the Weather History Date:

Monday, September 8, 2014

  Actual Average Record
Temperature  
Mean Temperature 75 °F 70 °F  
Max Temperature 84 °F 82 °F 92 °F (2002)
Min Temperature 65 °F 58 °F 47 °F (1951)
Degree Days  
Heating Degree Days 0 0  
Month to date heating degree days 0 0  
Since 1 July heating degree days 0 1  
Cooling Degree Days 10 5  
Month to date cooling degree days 96 50  
Year to date cooling degree days 1053 902  
Growing Degree Days 24 (Base 50)    
Moisture  
Dew Point 63 °F    
Average Humidity 69    
Maximum Humidity 87    
Minimum Humidity 51    
Precipitation  
Precipitation 0.00 in 0.10 in 0.89 in (2004)
Month to date precipitation 0.59 0.85  
Year to date precipitation 25.63 30.30  
Snow  
Snow 0.00 in 0.00 in - ()
Month to date snowfall 0.0 0.0  
Since 1 July snowfall 0.0 0.0  
Since 1 September snowfall 0.0 0.0  
Snow Depth 0.00 in    
Sea Level Pressure  
Sea Level Pressure 30.03 in    
Wind  
Wind Speed 3 mph (East)    
Max Wind Speed 10 mph    
Max Gust Speed 14 mph    
Visibility 10 miles    
Events      
T = Trace of Precipitation, MM = Missing Value Source: NWS Daily Summary

Daily Weather History Graph

Daily Weather History Graph

Search for Another Location

Airport or City:

Trip Planner

Search our weather history database for the weather conditions in past years. The results will help you decide how hot, cold, wet, or windy it might be!

Date:

Astronomy

Sep. 08, 2014 Rise Set
Actual Time 7:06 AM EDT 7:47 PM EDT
Civil Twilight 6:40 AM EDT 8:13 PM EDT
Nautical Twilight 6:09 AM EDT 8:44 PM EDT
Astronomical Twilight 5:38 AM EDT 9:15 PM EDT
Moon 7:27 PM EDT (9/8) 6:29 AM EDT (9/8)
Length of Visible Light 13h 33m
Length of Day
12h 40m
Full, 100% of the Moon is Illuminated
Sep 8
Full
Sep 8
Full
Sep 15
Last Quarter
Sep 24
New
Oct 1
First Quarter

Hourly Weather History & Observations

Time (EDT) Temp. Heat Index Dew Point Humidity Pressure Visibility Wind Dir Wind Speed Gust Speed Precip Events Conditions
12:53 AM 69.1 °F - 64.9 °F 87% 30.02 in 10.0 mi Calm Calm - N/A   Scattered Clouds
1:53 AM 70.0 °F - 64.9 °F 84% 30.01 in 10.0 mi Calm Calm - N/A   Mostly Cloudy
2:53 AM 68.0 °F - 64.9 °F 90% 30.01 in 10.0 mi Calm Calm - N/A   Scattered Clouds
3:53 AM 69.1 °F - 64.0 °F 84% 30.01 in 10.0 mi Calm Calm - N/A   Scattered Clouds
4:53 AM 68.0 °F - 64.4 °F 88% 30.08 in 10.0 mi Calm Calm - N/A   Scattered Clouds
5:53 AM 66.9 °F - 63.0 °F 87% 30.01 in 10.0 mi Calm Calm - N/A   Scattered Clouds
6:53 AM 66.0 °F - 62.1 °F 87% 30.02 in 10.0 mi Calm Calm - N/A   Partly Cloudy
7:53 AM 66.0 °F - 62.1 °F 87% 30.05 in 10.0 mi Calm Calm - N/A   Partly Cloudy
8:53 AM 71.1 °F - 62.1 °F 73% 30.06 in 10.0 mi ENE 6.9 mph - N/A   Partly Cloudy
9:53 AM 73.0 °F - 62.1 °F 68% 30.06 in 10.0 mi East 6.9 mph - N/A   Scattered Clouds
10:53 AM 75.0 °F - 62.1 °F 64% 30.07 in 10.0 mi ENE 5.8 mph - N/A   Mostly Cloudy
11:53 AM 77.0 °F - 63.0 °F 62% 30.07 in 10.0 mi East 5.8 mph - N/A   Scattered Clouds
12:53 PM 80.1 °F 81.7 °F 64.0 °F 58% 30.06 in 10.0 mi Variable 3.5 mph - N/A   Mostly Cloudy
1:53 PM 81.0 °F 82.5 °F 64.0 °F 56% 30.04 in 10.0 mi Variable 4.6 mph - N/A   Mostly Cloudy
2:53 PM 82.0 °F 83.4 °F 64.0 °F 54% 30.03 in 10.0 mi East 6.9 mph - N/A   Scattered Clouds
3:53 PM 82.9 °F 84.0 °F 63.0 °F 51% 29.99 in 10.0 mi North - - N/A   Scattered Clouds
4:53 PM 81.0 °F 82.5 °F 64.0 °F 56% 29.99 in 10.0 mi East 4.6 mph - N/A   Scattered Clouds
5:53 PM 82.0 °F 83.4 °F 64.0 °F 54% 29.99 in 10.0 mi Variable 5.8 mph - N/A   Scattered Clouds
6:53 PM 78.1 °F - 64.0 °F 62% 30.00 in 10.0 mi East 6.9 mph - N/A   Mostly Cloudy
7:53 PM 73.9 °F - 62.1 °F 66% 30.02 in 10.0 mi ENE 5.8 mph - N/A   Scattered Clouds
8:53 PM 71.1 °F - 61.0 °F 70% 30.04 in 10.0 mi East 5.8 mph - N/A   Scattered Clouds
9:53 PM 68.0 °F - 61.0 °F 78% 30.06 in 10.0 mi Calm Calm - N/A   Scattered Clouds
10:53 PM 66.0 °F - 60.1 °F 81% 30.06 in 10.0 mi Calm Calm - N/A   Scattered Clouds
11:53 PM 66.2 °F - 60.8 °F 83% 30.07 in 10.0 mi ENE 4.6 mph - N/A   Scattered Clouds